Change the Weather History Date:

Wednesday, August 27, 2014

  Actual Average Record
Temperature  
Mean Temperature 84 °F -  
Max Temperature 95 °F - 97 °F (2011)
Min Temperature 72 °F - 69 °F (2013)
Degree Days  
Heating Degree Days 0    
Cooling Degree Days 19    
Growing Degree Days 34 (Base 50)    
Moisture  
Dew Point 69 °F    
Average Humidity 62    
Maximum Humidity 87    
Minimum Humidity 36    
Precipitation  
Precipitation 0.00 in - 0.99 in (2010)
Month to date precipitation 1.51  
Year to date precipitation 49.14  
Sea Level Pressure  
Sea Level Pressure 30.03 in    
Wind  
Wind Speed 3 mph (ENE)    
Max Wind Speed 10 mph    
Max Gust Speed 15 mph    
Visibility 10 miles    
Events      
T = Trace of Precipitation, MM = Missing Value Source: NWS Daily Summary

Daily Weather History Graph

Daily Weather History Graph

Search for Another Location

Airport or City:

Trip Planner

Search our weather history database for the weather conditions in past years. The results will help you decide how hot, cold, wet, or windy it might be!

Date:

Astronomy

Aug. 27, 2014 Rise Set
Actual Time 7:17 AM EDT 8:11 PM EDT
Civil Twilight 6:52 AM EDT 8:36 PM EDT
Nautical Twilight 6:23 AM EDT 9:05 PM EDT
Astronomical Twilight 5:53 AM EDT 9:35 PM EDT
Moon 9:01 AM EDT (8/27) 9:16 PM EDT (8/27)
Length of Visible Light 13h 43m
Length of Day
12h 54m
Waxing Crescent, 4% of the Moon is Illuminated
Aug 27
Waxing Crescent
Sep 2
First Quarter
Sep 8
Full
Sep 15
Last Quarter
Sep 24
New

Hourly Weather History & Observations

Time (EDT) Temp. Heat Index Dew Point Humidity Pressure Visibility Wind Dir Wind Speed Gust Speed Precip Events Conditions
12:53 AM 78.1 °F - 72.0 °F 81% 30.02 in 10.0 mi Calm Calm - N/A   Clear
1:53 AM 75.0 °F - 71.1 °F 87% 30.01 in 10.0 mi Calm Calm - N/A   Clear
2:53 AM 73.9 °F - 70.0 °F 87% 30.01 in 10.0 mi Calm Calm - N/A   Clear
3:53 AM 73.0 °F - 70.0 °F 90% 30.00 in 10.0 mi Calm Calm - N/A   Clear
4:53 AM 73.0 °F - 69.1 °F 87% 30.01 in 10.0 mi Calm Calm - N/A   Clear
5:53 AM 73.0 °F - 70.0 °F 90% 30.01 in 10.0 mi NNE 5.8 mph - N/A   Clear
6:53 AM 73.0 °F - 69.1 °F 87% 30.04 in 10.0 mi NNE 3.5 mph - N/A   Clear
7:53 AM 73.0 °F - 70.0 °F 90% 30.04 in 9.0 mi NE 5.8 mph - N/A   Clear
8:53 AM 77.0 °F - 69.1 °F 76% 30.06 in 10.0 mi East 6.9 mph - N/A   Clear
9:53 AM 82.0 °F 85.9 °F 70.0 °F 67% 30.07 in 10.0 mi East 8.1 mph - N/A   Clear
10:53 AM 86.0 °F 89.4 °F 68.0 °F 55% 30.08 in 10.0 mi ENE 6.9 mph - N/A   Clear
11:53 AM 88.0 °F 91.4 °F 68.0 °F 51% 30.08 in 10.0 mi ENE 6.9 mph - N/A   Partly Cloudy
12:53 PM 90.0 °F 92.8 °F 66.9 °F 46% 30.07 in 10.0 mi Variable 4.6 mph - N/A   Mostly Cloudy
1:53 PM 91.0 °F 93.0 °F 64.9 °F 42% 30.05 in 10.0 mi NW 6.9 mph - N/A   Scattered Clouds
2:53 PM 93.2 °F 94.1 °F 62.6 °F 36% 29.99 in 10.0 mi Variable 5.8 mph - N/A   Scattered Clouds
3:53 PM 93.9 °F 95.2 °F 63.0 °F 36% 30.01 in 10.0 mi North 8.1 mph - N/A   Scattered Clouds
4:53 PM 95.0 °F 97.0 °F 64.0 °F 36% 29.99 in 10.0 mi North 6.9 mph - N/A   Scattered Clouds
5:53 PM 89.1 °F 94.1 °F 70.0 °F 53% 29.99 in 10.0 mi SSW 8.1 mph - N/A   Scattered Clouds
6:53 PM 87.1 °F 92.0 °F 70.0 °F 57% 29.99 in 10.0 mi South 9.2 mph - N/A   Scattered Clouds
7:53 PM 82.9 °F 87.5 °F 71.1 °F 67% 29.99 in 10.0 mi South 4.6 mph - N/A   Clear
8:53 PM 81.0 °F 84.9 °F 71.1 °F 72% 30.01 in 10.0 mi SSE 3.5 mph - N/A   Partly Cloudy
9:53 PM 79.0 °F - 73.0 °F 82% 30.02 in 10.0 mi Calm Calm - N/A   Clear
10:53 PM 79.0 °F - 70.0 °F 74% 30.02 in 10.0 mi Calm Calm - N/A   Clear
11:53 PM 75.9 °F - 71.1 °F 85% 30.04 in 10.0 mi Calm Calm - N/A   Clear